CREW DRAGON 7

Last updated on Tue Mar 12 2024 00:02:07 GMT+0000 (Coordinated Universal Time)

1 57697U 23128A 24071.48278310 .00013645 00000+0 24812-3 0 9995 2 57697 51.6381 79.6364 0006142 352.7944 7.2956 15.49818691 30747
UTC large
Height (km)
Speed (km/s)
/
Latitude / Longitude
Inclination (degrees)
Orbital Period (minutes)
Azimuth
Elevation
Range (km)
Doppler Factor

Next 0 passes for location: London (51.5072 / 0.1276)

Sorry there are no passes over London.